Location: Groß Eilstorf
(52.8200°N, 9.4552°E)
Time: 04:16:50
(UTC+00:00)

Okean-O - Pass Details

Date: 15 May 2026
Orbit: 627 x 629 km, 97.9° (Epoch: 6 June)

Event Time Altitude Azimuth Distance (km) Brightness Sun altitude
Exits shadow 20:14:53 - 172° (S) 2,461 5.1 -7.9°
Reaches altitude 10° 20:16:00 10° 174° (S) 2,004 4.7 -8.0°
Maximum altitude 20:20:21 67° 257° (WSW) 684 2.9 -8.5°
Drops below altitude 10° 20:24:44 10° 341° (NNW) 2,019 6.4 -8.9°
Sets 20:26:57 0° 344° (NNW) 2,931 7.4 -9.1°
